Regional Weather Roundup
Issued by NWS

Home | Current Version | Previous Version | Graphics & Text | Print | Product List | Glossary On
Versions: 1 2 3 4 5 6 7 8 9 10 11 12 13 14 15 16 17 18 19 20 21 22 23 24 25 26 27 28 29 30 31 32 33 34 35 36 37 38 39 40 41 42 43 44 45 46 47 48 49 50
000
ASUS45 KTFX 040119
RWRMT
MONTANA HOURLY WEATHER ROUNDUP
NATIONAL WEATHER SERVICE GREAT FALLS MT
619 PM MST TUE MAR 3 2015

NOTE: "FAIR" INDICATES FEW OR NO CLOUDS BELOW 12000 FEET WITH NO
SIGNIFICANT WEATHER AND/OR OBSTRUCTIONS TO VISIBILITY.

* THESE STATIONS ARE NOT UNDER NWS QUALITY CONTROL. THEY DO NOT
   REPORT WEATHER SUCH AS PRECIPITATION OR FOG.

MTZ001>007-043-040200-
WEST OF THE DIVIDE
CITY           SKY/WX    TMP DP  RH WIND       PRES   REMARKS
KALISPELL      PTCLDY    27  10  49 S10       30.07S WCI  18
MISSOULA       MOCLDY    27   7  42 N10       30.07R WCI  18
BUTTE          PTCLDY    16   1  51 W9        29.92R WCI   5
MULLAN PASS    PTCLDY    16   7  67 VRB6      29.92S WCI   7
* ANACONDA     PTCLDY    14   1  56 W3         N/A
* ESSEX        N/A       20   1  43 N/A        N/A
* EUREKA APT   PTCLDY    30   3  31 CALM      30.08S
* HAMILTON APT PTCLDY    25   9  50 N6        30.04R WCI  18
* LIBBY APT    PTCLDY    32   7  35 SW3       30.08R
* LINCOLN      N/A       21  -2  36 W2G11      N/A
* LOOKOUT PASS N/A       23   8  52 E2         N/A
* POLSON       N/A       22   7  52 S2         N/A
* RONAN APT    PTCLDY    27   9  46 N/A        N/A
* SEELEY LAKE  N/A       23  -2  33 N9G16      N/A   WCI  13
* THOMP F APT  PTCLDY    23  -2  33 W7G25      N/A   WCI  15
$$

MTZ008-052>055-040200-
SOUTHWEST MONTANA
CITY           SKY/WX    TMP DP  RH WIND       PRES   REMARKS
BOZEMAN        PTCLDY    16  -2  45 SW3       29.99R
DILLON         PTCLDY    19   7  59 NW5       29.89R WCI  12
* W YELLOWSTON MOCLDY    17  -9  30 W3G8       N/A
* THREE FORKS  PTCLDY    18  -4  37 N/A        N/A
* BOULDER HILL N/A       12  -5  46 N1         N/A
* MONIDA PASS  N/A       18   3  52 NW12G17    N/A   WCI   5
* RAYNOLDS PAS N/A        9 -29  15 N9         N/A   WCI  -4
* WHITEHALL    N/A       22   0  38 E6G11      N/A   WCI  14
* WISE RIVER   N/A       23  -2  33 W14G27     N/A   WCI  10
$$

MTZ009>010-012-014-046-048-049-054-040200-
EAST SLOPES AND CENTRAL MONTANA
CITY           SKY/WX    TMP DP  RH WIND       PRES   REMARKS
CUT BANK       PTCLDY    12  -6  44 N12       30.04R WCI  -2
GREAT FALLS    PTCLDY    18  -2  41 N10       30.04R WCI   6
HELENA         MOCLDY    21   1  41 S3        30.01R
MALMSTROM AFB  PTCLDY    18  -4  37 NW13      30.07R WCI   5
* CONRAD       PTCLDY    19   3  49 W6         N/A   WCI  11
* DEARBORN     N/A       17   5  59 N/A        N/A
* EAST GLACIER N/A        4  -3  72 S6         N/A   WCI  -7
* MONARCH      N/A        9 -11  39 NW18G23    N/A   WCI  -9
* PENDROY      N/A        9  -3  58 W11        N/A   WCI  -5
* ROGERS PASS  N/A       11   2  67 N1         N/A
* SWEET GRASS  N/A       11  -2  55 NW11       N/A   WCI  -3
* WHITE SULPH  N/A       14  -7  38 N10G19     N/A   WCI   1
$$

MTZ011-013-016-021-035-040-045-047-050-051-040200-
NORTH CENTRAL MONTANA
CITY           SKY/WX    TMP DP  RH WIND       PRES   REMARKS
HAVRE          PTCLDY    16  -2  45 NW15G25   30.09R WCI   1
LEWISTOWN      PTCLDY     3  -6  66 W7        29.99R WCI  -9
* N BAR RANCH  CLEAR      5  -8  54 NW12      29.95S WCI -11
* CHINOOK      PTCLDY    16  -2  45 W20G25    30.09R WCI  -1
* FORT BENTON  PTCLDY    19  -2  39 W10       30.10R WCI   8
* CHESTER      N/A       15  -8  35 N10G16     N/A   WCI   3
* DENTON       N/A       14  -3  46 W7         N/A   WCI   4
* GEYSER       N/A       13   0  56 W12G17     N/A   WCI  -1
* JUDITH GAP   N/A        7  -5  57 W6         N/A   WCI  -4
* LOMA         N/A       21  -2  36 W12G20     N/A   WCI   9
$$

MTZ017>020-022>027-061-062-040200-
NORTHEAST MONTANA
CITY           SKY/WX    TMP DP  RH WIND       PRES   REMARKS
GLASGOW        MOCLDY    14  -6  40 NW26G35   30.01R WCI  -6
JORDAN         PTCLDY    16  -8  33 NW17G28   30.01S
SIDNEY         MOCLDY    12  -2  53 W12       30.03S WCI  -2
WOLF POINT     CLEAR     16  -6  37 NW21      30.01S WCI  -1
* BEAVER HILL  N/A       11  -6  46 W17G26     N/A   WCI  -6
* CIRCLE       N/A       15  -2  47 W11G23     N/A   WCI   2
* LINDSAY DVD  N/A       10  -4  53 W17G22     N/A   WCI  -8
* NAVAJO       N/A        7  -2  66 NW20G29    N/A   WCI -13
* PLENTYWOOD A PTCLDY     7  -2  66 W13G20    29.93F WCI  -9
* POPLAR APT   PTCLDY    12  -6  44 W16G23    30.01R WCI  -5
* SACO         N/A       15  -5  40 W26G33     N/A   WCI  -4
* SCOBEY APT   PTCLDY     9  -2  61 W22G30     N/A   WCI -11
$$

MTZ028>042-056>058-040200-
SOUTHCENTRAL AND SOUTHEAST MONTANA
CITY           SKY/WX    TMP DP  RH WIND       PRES   REMARKS
BAKER          PTCLDY    10  -6  48 NW17      29.97R WCI  -8
BILLINGS       MOCLDY    12  -2  53 NW7       30.00R WCI   1
LIVINGSTON     PTCLDY    16   0  49 W7        29.96R WCI   6
MILES CITY     PTCLDY    14  -2  49 W10       30.02S WCI   1
* BIG TIMBER A PTCLDY    16   0  49 W15G21    29.96R WCI   1
* FORSYTH APT  PTCLDY    16  -2  45 W10G16    30.04S WCI   4
* LAUREL APT   PTCLDY    16  -6  37 N/A        N/A
* ROUNDUP APT  PTCLDY    16 -11  29 W11G18     N/A   WCI   3
* ALZADA       N/A       10  -1  61 W9G14      N/A   WCI  -3
* HYSHAM       N/A       14  -8  36 W6G12      N/A   WCI   5
* REED POINT   N/A       20   2  45 W15G22     N/A   WCI   6
* ROSCOE HILL  N/A        4 -12  47 SW3G8      N/A
$$

REGIONAL REPORTS...DAKOTAS
CITY           SKY/WX    TMP DP  RH WIND       PRES   REMARKS
WILLISTON      MOCLDY     5  -4  66 N7        30.01S WCI  -7
DICKINSON      MOCLDY     9  -4  55 NW15      29.94R WCI  -8
BEACH          MOCLDY     9  -2  61 NW13G23   29.97S WCI  -7
CROSBY         CLEAR      3  -2  79 W14G21    29.97F WCI -15
TIOGA          PTCLDY     0  -9  65 W9        29.99S WCI -15
WATFORD CITY   FAIR       3  -4  72 N6        29.99R WCI  -8
BISMARCK       CLEAR      9  -2  61 NW13      30.03R WCI  -7
GRAND FORKS    MOCLDY     3  -6  66 NW16G24   29.97R WCI -16
FARGO          LGT SNOW   7  -6  55 NW26G33   30.00R WCI -15
BUFFALO SD     CLEAR     10  -6  48 NW17      29.89R WCI  -8
RAPID CITY     PTCLDY    10   0  64 N18       29.97R WCI  -8
$$

REGIONAL REPORTS...WYOMING/IDAHO/WASHINGTON
CITY           SKY/WX    TMP DP  RH WIND       PRES   REMARKS
GILLETTE       CLEAR      7  -4  60 NW9       29.94R WCI  -6
SHERIDAN       CLEAR      1  -8  65 SW8       29.98S WCI -13
CODY           PTCLDY    10   3  73 CALM      29.91R
YELLOWSTONE LA PTCLDY    10 -11  37 W9G18     29.77R WCI  -3
SALMON         CLEAR     30   1  29 NW8       29.94R WCI  22
MULLAN PASS    PTCLDY    16   7  67 VRB6      29.92S WCI   7
SAND POINT     PTCLDY    36  12  37 CALM      30.10S
SPOKANE        PTCLDY    37   7  28 W10       30.10S WCI  30
$$

REGIONAL REPORTS...ALBERTA
CITY           SKY/WX    TMP DP  RH WIND       PRES   REMARKS
CALGARY        N/A       14  -8  36 N7        30.06R WCI   4
LETHBRIDGE     FAIR      16  -9  32 N7        30.11R WCI   6
MEDICINE HAT   FAIR      12  -2  53 NW17      30.12R WCI  -5
EDMONTON       N/A        9  -4  55 N12       30.14R WCI  -6
WATERTON GATE  N/A        3  -8  60 NE3        N/A
CARDSTON       N/A       10   0  64 W5         N/A   WCI   1
MILK RIVER     N/A       10   1  67 N15        N/A   WCI  -7
$$

REGIONAL REPORTS...SASKATCHEWAN
CITY           SKY/WX    TMP DP  RH WIND       PRES   REMARKS
SWIFT CURRENT  MOCLDY     0  -4  83 N18G24    29.99R WCI -21
REGINA         LGT SNOW  -2  -9  72 NW17      29.98R WCI -23
ASSINIBOIA     N/A        1  -2  87 NW24G31    N/A   WCI -22
CORONACH       N/A        3  -2  79 NW24G33    N/A   WCI -20

$$



USA.gov is the U.S. government's official web portal to all federal, state and local government web resources and services.